Location: Naloco
(16.5478°S, 37.1017°E)
Time: 02:55:33
(UTC+00:00)

CSL-04 Debris - Pass Details

Date: 13 August 2020
Orbit: 826 x 849 km, 98.9° (Epoch: 23 September)

Event Time Altitude Azimuth Distance (km) Brightness Sun altitude
Exits shadow 17:24:36 51° 202° (SSW) 1,060 4.7 -29.5°
Maximum altitude 17:25:48 65° 256° (WSW) 930 4.5 -29.8°
Drops below altitude 10° 17:31:13 10° 337° (NNW) 2,463 6.9 -31.1°
Sets 17:33:35 0° 340° (NNW) 3,391 7.7 -31.7°
